Location: 433rd Scouts Home(Lloyd Manor Park, Etobicoke )
(43.6722°N, 79.5542°W)
Time: 11:27:25
(UTC-04:00)

Nauka - Pass Details

Date: 28 September 2021
Orbit: 417 x 423 km, 51.6° (Epoch: 26 October)

Event Time Altitude Azimuth Distance (km) Brightness Sun altitude
Rises 19:36:48 0° 295° (WNW) 2,364 ? -6.8°
Reaches altitude 10° 19:39:16 10° 312° (NW) 1,500 ? -7.2°
Maximum altitude 19:41:53 21° 4° (N) 1,015 ? -7.7°
Drops below altitude 10° 19:44:31 10° 55° (NE) 1,502 ? -8.1°
Enters shadow 19:45:07 - 61° (ENE) 1,697 ? -8.3°
